Погода в Херсоне

Погода в Херсоне : погода сейчас, прогноз погоды и архив. Всё, что Вы хотите узнать о погоде в Херсоне!

Хотите узнать прогноз погоды в Херсоне? Тогда Вам сюда: Погода в Херсоне

Поиск расширенной информации на нашем сайте:

Другие новости

Новости СМИ2

Главная страница сайта

Новости сайта

03.07.2017

Напоминаем, что на нашем специализированном сайте Метеоцентр.Азия вы можете получить высокодетализированные автоматические прогнозы погоды по пунктам России, СНГ и мира в авиационном формате (включающие направление и скорость ветра, видимость, явления погоды, количество и форму облачности, нижнюю и верхнюю границу облачности).

Рекомендуем: Какие банки выдают кредиты в Херсоне.

Погода в Херсоне - сегодня

Время (UTC), дата Ветер
(°,м/с) 
Видим.   Явления Облачность Т
(°С)
Тd
(°С)
f(%) Тe
(°С)
Pmin
(гПа)
dP
(гПа)
Po
(мм)
O2
(г/м3)
Тmin Tmax R s Состояние
почвы
09 19.04.18 300 (СЗ) 20000 м    8/8 600 м 
[Cu med, cong]
+17.3 +6.6 49 +17  1014.4  -2.2  756  285           
12 19.04.18 300 (СЗ) 10  10 км    8/8 600 м 
[Cu Sc]
+17.6 +5.9 46 +17  1012.8  -1.6  755  285           
15 19.04.18 320 (СЗ) 10 км    10/8 600 м верхняя 
[Sc diur, vesp|Ci fib]
+18 +5.2 43 +18  1011.1  -1.6  754  284           
18 19.04.18 330 (СЗ) 10 км  {ливн. осадки}  3/3 600 м 
[Sc]
+14 +3.9 51 +13  1011.3  0.1  754  288    +19  0.0     
21 19.04.18 340 (С) 10 км    8/8 2000 м средняя 
[Ac As]
+11.2 +4.3 62 +11  1011.8  0.4  754  291           
00 20.04.18 330 (СЗ) 10 км    10/10 2000 м 
[Ac und]
+10.8 +5.1 68 +10  1012  0.2  754  292           
03 20.04.18 340 (С) 10 км  {ливн. осадки}  8/8 600 м 
[Sc]
+9.2 +6.2 81 +7  1012.4  0.4  754  293          затоплена
водой 
06 20.04.18 340 (С) 20000 м  {ливн. осадки}  6/5 600 м средняя 
[Cu med, cong|Ac cuf]
+11.7 +5.9 68 +10  1013.4  755  291  +8.8    0.0     
09 20.04.18 340 (С) 10  20000 м    8/3 600 м средняя, верхняя 
[Cu med, cong|Ac cuf|Ci]
+15.5 +4.9 49 +14  1014  0.7  756  287           
12 20.04.18 340 (С) 20000 м    5/5 600 м 
[Cu med, cong]
+20 +1.6 29 +20  1014.1  0.2  756  284           
15 20.04.18 360 (С) 20000 м    1/1 600 м 
[Cu hum]
+18.2 -2.3 25 +18  1015.2  757  286           
18 20.04.18 010 (С) 10 км    ясно 
+12.8 -1.5 37 +12  1017.4  2.1  758  292    +20.7       
21 20.04.18 350 (С) 10 км    ясно 
+7.6 -0.8 55 +8  1018.4  0.9  759  298           
00 21.04.18 320 (СЗ) 10 км    ясно 
+5.5 -1 63 +5  1018.4  -0.1  759  300           
03 21.04.18 320 (СЗ) 20000 м    ясно 
+3.8 -1.2 70 +3  1018.8  0.4  759  302           
06 21.04.18 340 (С) 20000 м    ясно 
+13.3 +3.7 52 +13  1019  0.4  759  291  +3.4  +2.3      сухая 
09 21.04.18 290 (З) 20000 м    ясно 
+17.9 +2.9 37 +19  1017.8  -1.1  759  286           
12 21.04.18 250 (З) 20000 м    ясно 
+20.8 +3.3 32 +21  1015.5  -2.2  757  283           
15 21.04.18 220 (ЮЗ) 20000 м    3/0 верхняя 
[Ci fib]
+18.5 +3.3 36 +19  1013.4  -2.1  755  285           
18 21.04.18 220 (ЮЗ) 10 км    3/0 верхняя 
[Ci fib]
+13.9 +2.9 47 +14  1012  -1.5  754  289    +20.9       
21 21.04.18 210 (ЮЗ) 10 км    6/6 2000 м средняя 
[Ac trans]
+13.4 +6.3 62 +13  1010.2  -1.8  753  288           
00 22.04.18 240 (ЮЗ) 10 км    ясно 
+13.1 +7.6 69 +13  1008.3  -1.9  751  288           
03 22.04.18 290 (З) 10 км    9/0 верхняя 
[Ci]
+11.8 +5.8 67 +12  1008.8  0.4  752  289           
06 22.04.18 110 (В) 10 км    ясно 
+16.5 +8.2 58 +17  1010.5  1.8  753  285  +11.3         
09 22.04.18 330 (СЗ) 20000 м    ясно 
+19.2 +4.7 38 +20  1010.8  0.4  753  283           
Время (UTC), дата Ветер
(°,м/с) 
Видим.   Явления Облачность Т
(°С)
Тd
(°С)
f(%) Тe
(°С)
Pmin
(гПа)
dP
(гПа)
Po
(мм)
O2
(г/м3)
Тmin Tmax R s Состояние
почвы

Для получения пояснительной информации подведите курсор к названию столбца.

ПОГОДА в Херсоне - архив

Всё, что Вы хотите узнать о погоде в Херсоне - удобно и подробно!

Выберите нужную дату (начиная с 1 января 2015* года) и нажмите кнопку "Найти".
Будут отображены архивные сводки погоды по пункту Херсон, начиная с указанной даты.


Отображать данные в формате CSV (для использования в таблицах Excel)


Внимание! Наш архив погоды предназначен исключительно для личного некоммерческого использования в познавательных целях. Если Вам необходимы официальные справки о состоянии погоды (для производственных, юридических, коммерческих и т.п. целей), обращайтесь в органы Росгидромета.

*Примечание: данная дата относится к архиву по метеостанциям СССР (Россия, СНГ, Балтия).
Архив по метеостанциям Зарубежной Европы и Азии (кроме Китая) хранится 10 дней, по другим регионам земного шара (Китай, Африка, Америка, Австралия, Океания) - 1 день.

Херсон - район местоположения метеостанции


Название, широта, долгота, высота метеостанции:
Херсон 46.6°ш. 32.6°д. 54 м над ур. моря [Украина]

Дополнительная информация

В oтличие oт бoльшинства пoгoдных сайтoв мы публикуем пoдрoбную метеoинфoрмацию в детальнoм прoфессиoнальнoм фoрмате.

Характеристики температуры и влажнoсти вoздуха измеряются на высoте 2 м в тени вдали oт зданий и деревьев.
Скoрoсть ветра измеряется на высoте 10 м (на урoвне рoста челoвека скoрoсть ветра ниже в 1.5-2 раза). Если метеoстанция нахoдится в гoрoде или в лесу, тo скoрoсть ветра занижена на 2-4 м/с пo сравнению с oткрытым местoм. Скoрoсть ветра над акватoриями крупных рек и oзёр, а также на вершинах хoлмoв на 2-5 м/с выше, чем в oбычных услoвиях.
Атмoсфернoе давление в разных тoчках местнoсти мoжет значительнo oтличаться oт давления на метеoстанции, в зависимoсти oт услoвий рельефа (при пoдъёме на 10 м давление пoнижается примернo на 1 мм рт.ст.).